| time (UTC) | temp F | wind direction | speed MPH | gust MPH | rain 1hr in | rain 24hr in | rain mn in | humidity % | barometer mb |
| 20260903013727 | 96 | 266 | 0.0 | 3.0 | 0.00 | 0.00 | 0.00 | 31 | 1011.6 |
| 20260903013227 | 97 | 275 | 1.0 | 3.0 | 0.00 | 0.00 | 0.00 | 30 | 1011.6 |
| 20260903012726 | 98 | 274 | 0.0 | 3.0 | 0.00 | 0.00 | 0.00 | 30 | 1011.6 |
| 20260903012257 | 98 | 284 | 0.0 | 2.0 | 0.00 | 0.00 | 0.00 | 29 | 1011.6 |
| 20260903010226 | 97 | 277 | 0.0 | 2.0 | 0.00 | 0.00 | 0.00 | 29 | 1011.8 |
| 20260903005725 | 97 | 275 | 0.0 | 5.0 | 0.00 | 0.00 | 0.00 | 29 | 1011.7 |
| 20260903005255 | 97 | 288 | 0.0 | 5.0 | 0.00 | 0.00 | 0.00 | 29 | 1011.3 |
| 20260903004725 | 97 | 326 | 0.0 | 6.0 | 0.00 | 0.00 | 0.00 | 29 | 1011.3 |
| 20260903004255 | 98 | 285 | 3.0 | 6.0 | 0.00 | 0.00 | 0.00 | 28 | 1011.6 |
| 20260903003755 | 99 | 285 | 0.0 | 6.0 | 0.00 | 0.00 | 0.00 | 28 | 1011.5 |
| 20260903003225 | 99 | 275 | 1.0 | 6.0 | 0.00 | 0.00 | 0.00 | 28 | 1011.6 |
| 20260903002725 | 99 | 246 | 0.0 | 6.0 | 0.00 | 0.00 | 0.00 | 28 | 1011.6 |
| 20260903002225 | 99 | 281 | 2.0 | 6.0 | 0.00 | 0.00 | 0.00 | 28 | 1011.5 |
| 20260903001724 | 100 | 271 | 1.0 | 4.0 | 0.00 | 0.00 | 0.00 | 27 | 1011.8 |
| 20260903000754 | 100 | 326 | 0.0 | 5.0 | 0.00 | 0.00 | 0.00 | 27 | 1011.7 |
| 20260903000255 | 100 | 301 | 1.0 | 8.0 | 0.00 | 0.00 | 0.00 | 28 | 1011.8 |
| 20260902235754 | 100 | 269 | 3.0 | 8.0 | 0.00 | 0.00 | 0.00 | 27 | 1011.8 |
| 20260902235254 | 100 | 281 | 0.0 | 6.0 | 0.00 | 0.00 | 0.00 | 27 | 1011.9 |
| 20260902234754 | 100 | 263 | 4.0 | 7.0 | 0.00 | 0.00 | 0.00 | 27 | 1011.9 |
| 20260902234224 | 100 | 233 | 3.0 | 8.0 | 0.00 | 0.00 | 0.00 | 28 | 1012.0 |
| 20260902233753 | 100 | 304 | 6.0 | 8.0 | 0.00 | 0.00 | 0.00 | 28 | 1012.1 |
| 20260902232753 | 100 | 288 | 1.0 | 9.0 | 0.00 | 0.00 | 0.00 | 28 | 1012.2 |
| 20260902232253 | 101 | 283 | 0.0 | 5.0 | 0.00 | 0.00 | 0.00 | 27 | 1012.1 |
| 20260902231753 | 100 | 227 | 1.0 | 4.0 | 0.00 | 0.00 | 0.00 | 28 | 1012.3 |
| 20260902231252 | 101 | 295 | 1.0 | 8.0 | 0.00 | 0.00 | 0.00 | 28 | 1012.4 |
| 20260902230752 | 101 | 251 | 2.0 | 8.0 | 0.00 | 0.00 | 0.00 | 27 | 1012.3 |
| 20260902225752 | 101 | 252 | 3.0 | 6.0 | 0.00 | 0.00 | 0.00 | 28 | 1012.5 |
| 20260902225252 | 101 | 244 | 5.0 | 7.0 | 0.00 | 0.00 | 0.00 | 28 | 1012.6 |
| 20260902224752 | 101 | 273 | 3.0 | 7.0 | 0.00 | 0.00 | 0.00 | 27 | 1012.6 |
| 20260902224252 | 101 | 231 | 0.0 | 7.0 | 0.00 | 0.00 | 0.00 | 27 | 1012.8 |
| 20260902223752 | 101 | 267 | 1.0 | 10.0 | 0.00 | 0.00 | 0.00 | 28 | 1012.9 |
| 20260902223251 | 101 | 293 | 5.0 | 10.0 | 0.00 | 0.00 | 0.00 | 29 | 1013.1 |
| 20260902222721 | 101 | 217 | 2.0 | 8.0 | 0.00 | 0.00 | 0.00 | 29 | 1013.2 |
| 20260902222251 | 100 | 308 | 5.0 | 9.0 | 0.00 | 0.00 | 0.00 | 30 | 1013.3 |
| 20260902221751 | 101 | 288 | 5.0 | 9.0 | 0.00 | 0.00 | 0.00 | 30 | 1013.3 |
| 20260902221251 | 101 | 291 | 4.0 | 7.0 | 0.00 | 0.00 | 0.00 | 30 | 1013.2 |
| 20260902220251 | 101 | 288 | 3.0 | 8.0 | 0.00 | 0.00 | 0.00 | 30 | 1013.4 |
| 20260902215750 | 100 | 285 | 4.0 | 8.0 | 0.00 | 0.00 | 0.00 | 30 | 1013.4 |
| 20260902215250 | 101 | 292 | 3.0 | 8.0 | 0.00 | 0.00 | 0.00 | 29 | 1013.6 |
| 20260902214750 | 100 | 283 | 1.0 | 8.0 | 0.00 | 0.00 | 0.00 | 31 | 1013.6 |
| 20260902214250 | 100 | 278 | 1.0 | 6.0 | 0.00 | 0.00 | 0.00 | 30 | 1013.7 |
| 20260902213750 | 101 | 269 | 3.0 | 5.0 | 0.00 | 0.00 | 0.00 | 31 | 1013.8 |
| 20260902213250 | 100 | 231 | 3.0 | 5.0 | 0.00 | 0.00 | 0.00 | 31 | 1013.8 |
| 20260902211749 | 99 | 218 | 2.0 | 13.0 | 0.00 | 0.00 | 0.00 | 32 | 1013.9 |
| 20260902210749 | 100 | 198 | 3.0 | 9.0 | 0.00 | 0.00 | 0.00 | 32 | 1014.2 |
| 20260902210249 | 99 | 229 | 1.0 | 5.0 | 0.00 | 0.00 | 0.00 | 33 | 1014.0 |
| 20260902205749 | 98 | 353 | 2.0 | 9.0 | 0.00 | 0.00 | 0.00 | 34 | 1014.1 |
| 20260902205248 | 98 | 266 | 4.0 | 9.0 | 0.00 | 0.00 | 0.00 | 33 | 1014.1 |
| 20260902204748 | 99 | 284 | 5.0 | 9.0 | 0.00 | 0.00 | 0.00 | 33 | 1014.3 |
| 20260902204249 | 99 | 164 | 6.0 | 8.0 | 0.00 | 0.00 | 0.00 | 34 | 1014.4 |
| 20260902203748 | 98 | 206 | 2.0 | 9.0 | 0.00 | 0.00 | 0.00 | 35 | 1014.3 |
| 20260902203248 | 98 | 305 | 0.0 | 9.0 | 0.00 | 0.00 | 0.00 | 35 | 1014.4 |
| 20260902202748 | 97 | 268 | 3.0 | 7.0 | 0.00 | 0.00 | 0.00 | 37 | 1014.6 |
| 20260902202248 | 96 | 70 | 4.0 | 7.0 | 0.00 | 0.00 | 0.00 | 39 | 1014.6 |
| 20260902201748 | 96 | 85 | 5.0 | 6.0 | 0.00 | 0.00 | 0.00 | 38 | 1014.5 |
| 20260902201248 | 97 | 166 | 2.0 | 6.0 | 0.00 | 0.00 | 0.00 | 38 | 1014.9 |
| 20260902200247 | 98 | 181 | 0.0 | 10.0 | 0.00 | 0.00 | 0.00 | 36 | 1015.1 |
| 20260902195747 | 98 | 166 | 3.0 | 10.0 | 0.00 | 0.00 | 0.00 | 37 | 1015.1 |
| 20260902195247 | 98 | 17 | 2.0 | 9.0 | 0.00 | 0.00 | 0.00 | 38 | 1015.2 |
| 20260902194247 | 98 | 189 | 6.0 | 8.0 | 0.00 | 0.00 | 0.00 | 38 | 1015.6 |
| 20260902193746 | 98 | 220 | 3.0 | 8.0 | 0.00 | 0.00 | 0.00 | 37 | 1015.7 |
| 20260902193246 | 98 | 146 | 1.0 | 8.0 | 0.00 | 0.00 | 0.00 | 37 | 1015.8 |
| 20260902192746 | 97 | 162 | 4.0 | 8.0 | 0.00 | 0.00 | 0.00 | 37 | 1015.6 |
| 20260902190246 | 97 | 258 | 1.0 | 10.0 | 0.00 | 0.00 | 0.00 | 37 | 1015.9 |
| 20260902185245 | 96 | 197 | 4.0 | 8.0 | 0.00 | 0.00 | 0.00 | 39 | 1016.1 |
| 20260902184745 | 96 | 210 | 4.0 | 9.0 | 0.00 | 0.00 | 0.00 | 39 | 1016.2 |
| 20260902184245 | 96 | 130 | 0.0 | 9.0 | 0.00 | 0.00 | 0.00 | 39 | 1016.2 |
| 20260902183244 | 96 | 118 | 3.0 | 8.0 | 0.00 | 0.00 | 0.00 | 40 | 1016.5 |
| 20260902182744 | 96 | 131 | 2.0 | 8.0 | 0.00 | 0.00 | 0.00 | 40 | 1016.6 |
| 20260902182250 | 95 | 141 | 1.0 | 8.0 | 0.00 | 0.00 | 0.00 | 41 | 1016.5 |
| 20260902181744 | 95 | 140 | 1.0 | 6.0 | 0.00 | 0.00 | 0.00 | 41 | 1016.6 |
| 20260902181244 | 95 | 276 | 1.0 | 7.0 | 0.00 | 0.00 | 0.00 | 41 | 1016.7 |
| 20260902180744 | 95 | 175 | 4.0 | 7.0 | 0.00 | 0.00 | 0.00 | 42 | 1016.9 |
| 20260902180243 | 94 | 240 | 2.0 | 6.0 | 0.00 | 0.00 | 0.00 | 42 | 1016.8 |
| 20260902174243 | 94 | 238 | 3.0 | 6.0 | 0.00 | 0.00 | 0.00 | 42 | 1017.0 |
| 20260902173743 | 94 | 234 | 6.0 | 6.0 | 0.00 | 0.00 | 0.00 | 44 | 1016.9 |
| 20260902172743 | 94 | 142 | 0.0 | 6.0 | 0.00 | 0.00 | 0.00 | 43 | 1017.1 |
| 20260902172243 | 93 | 185 | 4.0 | 6.0 | 0.00 | 0.00 | 0.00 | 43 | 1016.8 |
| 20260902171242 | 92 | 146 | 3.0 | 6.0 | 0.00 | 0.00 | 0.00 | 45 | 1016.9 |
| 20260902165242 | 91 | 153 | 1.0 | 6.0 | 0.00 | 0.00 | 0.00 | 48 | 1016.8 |
| 20260902164742 | 91 | 225 | 1.0 | 6.0 | 0.00 | 0.00 | 0.00 | 48 | 1016.8 |
| 20260902164242 | 91 | 148 | 5.0 | 6.0 | 0.00 | 0.00 | 0.00 | 49 | 1016.7 |
| 20260902163741 | 91 | 165 | 4.0 | 10.0 | 0.00 | 0.00 | 0.00 | 50 | 1016.8 |
| 20260902162241 | 90 | 224 | 3.0 | 7.0 | 0.00 | 0.00 | 0.00 | 51 | 1016.8 |
| 20260902160740 | 89 | 169 | 2.0 | 5.0 | 0.00 | 0.00 | 0.00 | 51 | 1016.7 |
| 20260902160240 | 89 | 103 | 2.0 | 5.0 | 0.00 | 0.00 | 0.00 | 52 | 1016.7 |
| 20260902154240 | 89 | 173 | 2.0 | 7.0 | 0.00 | 0.00 | 0.00 | 52 | 1016.7 |
| 20260902153239 | 88 | 132 | 2.0 | 7.0 | 0.00 | 0.00 | 0.00 | 55 | 1016.6 |
| 20260902152739 | 87 | 101 | 2.0 | 7.0 | 0.00 | 0.00 | 0.00 | 55 | 1016.6 |
| 20260902152239 | 87 | 128 | 1.0 | 7.0 | 0.00 | 0.00 | 0.00 | 56 | 1016.5 |
| 20260902150739 | 87 | 129 | 1.0 | 8.0 | 0.00 | 0.00 | 0.00 | 55 | 1016.5 |
| 20260902150238 | 87 | 136 | 5.0 | 8.0 | 0.00 | 0.00 | 0.00 | 55 | 1016.4 |
| 20260902145738 | 87 | 125 | 4.0 | 8.0 | 0.00 | 0.00 | 0.00 | 55 | 1016.3 |
| 20260902144738 | 86 | 116 | 2.0 | 9.0 | 0.00 | 0.00 | 0.00 | 54 | 1016.3 |
| 20260902143738 | 86 | 159 | 3.0 | 6.0 | 0.00 | 0.00 | 0.00 | 54 | 1016.3 |
| 20260902142737 | 86 | 122 | 3.0 | 5.0 | 0.00 | 0.00 | 0.00 | 55 | 1016.2 |
| 20260902141737 | 85 | 191 | 3.0 | 7.0 | 0.00 | 0.00 | 0.00 | 56 | 1015.9 |
| 20260902140737 | 84 | 89 | 3.0 | 6.0 | 0.00 | 0.00 | 0.00 | 58 | 1015.8 |
| 20260902135737 | 83 | 110 | 4.0 | 5.0 | 0.00 | 0.00 | 0.00 | 60 | 1015.7 |
| 20260902135236 | 82 | 101 | 3.0 | 5.0 | 0.00 | 0.00 | 0.00 | 61 | 1015.9 |
| 20260902134736 | 82 | 117 | 2.0 | 5.0 | 0.00 | 0.00 | 0.00 | 62 | 1015.9 |
| 20260902134236 | 81 | 98 | 3.0 | 4.0 | 0.00 | 0.00 | 0.00 | 62 | 1015.7 |
| 20260902132735 | 78 | 142 | 0.0 | 1.0 | 0.00 | 0.00 | 0.00 | 68 | 1015.5 |
| 20260902132235 | 78 | 122 | 0.0 | 1.0 | 0.00 | 0.00 | 0.00 | 69 | 1015.4 |
| 20260902131235 | 78 | 107 | 0.0 | 1.0 | 0.00 | 0.00 | 0.00 | 68 | 1015.3 |
| 20260902130735 | 78 | 107 | 0.0 | 1.0 | 0.00 | 0.00 | 0.00 | 68 | 1015.2 |
| 20260902130235 | 78 | 89 | 0.0 | 1.0 | 0.00 | 0.00 | 0.00 | 68 | 1015.3 |
| 20260902124734 | 79 | 108 | 0.0 | 2.0 | 0.00 | 0.00 | 0.00 | 68 | 1015.4 |
| 20260902124235 | 79 | 116 | 1.0 | 2.0 | 0.00 | 0.00 | 0.00 | 68 | 1015.4 |
| 20260902122734 | 79 | 98 | 1.0 | 3.0 | 0.00 | 0.00 | 0.00 | 67 | 1015.3 |
| 20260902122234 | 79 | 97 | 0.0 | 3.0 | 0.00 | 0.00 | 0.00 | 67 | 1015.3 |
| 20260902121733 | 79 | 110 | 1.0 | 2.0 | 0.00 | 0.00 | 0.00 | 68 | 1015.4 |
| 20260902121233 | 79 | 112 | 1.0 | 2.0 | 0.00 | 0.00 | 0.00 | 68 | 1015.3 |
| 20260902120234 | 78 | 100 | 0.0 | 0.0 | 0.00 | 0.00 | 0.00 | 68 | 1015.1 |
| 20260902115733 | 78 | 100 | 0.0 | 1.0 | 0.00 | 0.00 | 0.00 | 68 | 1015.0 |
| 20260902114733 | 78 | 110 | 0.0 | 1.0 | 0.00 | 0.00 | 0.00 | 69 | 1015.1 |
| 20260902113733 | 79 | 94 | 0.0 | 0.0 | 0.00 | 0.00 | 0.00 | 68 | 1015.3 |
| 20260902113232 | 79 | 94 | 0.0 | 0.0 | 0.00 | 0.00 | 0.00 | 67 | 1015.2 |
| 20260902112732 | 79 | 94 | 0.0 | 0.0 | 0.00 | 0.00 | 0.00 | 66 | 1015.2 |
| 20260902112232 | 79 | 94 | 0.0 | 0.0 | 0.00 | 0.00 | 0.00 | 66 | 1015.1 |
| 20260902111732 | 79 | 94 | 0.0 | 1.0 | 0.00 | 0.00 | 0.00 | 65 | 1015.1 |
| 20260902110732 | 79 | 86 | 0.0 | 1.0 | 0.00 | 0.00 | 0.00 | 66 | 1015.0 |
| 20260902110231 | 79 | 86 | 0.0 | 0.0 | 0.00 | 0.00 | 0.00 | 65 | 1015.1 |
| 20260902105731 | 80 | 86 | 0.0 | 1.0 | 0.00 | 0.00 | 0.00 | 65 | 1015.2 |
| 20260902105231 | 80 | 86 | 0.0 | 1.0 | 0.00 | 0.00 | 0.00 | 65 | 1015.3 |
| 20260902104731 | 80 | 86 | 0.0 | 1.0 | 0.00 | 0.00 | 0.00 | 64 | 1015.2 |
| 20260902104231 | 81 | 86 | 0.0 | 1.0 | 0.00 | 0.00 | 0.00 | 63 | 1015.4 |
| 20260902103731 | 81 | 86 | 0.0 | 2.0 | 0.00 | 0.00 | 0.00 | 62 | 1015.3 |
| 20260902103231 | 81 | 92 | 0.0 | 2.0 | 0.00 | 0.00 | 0.00 | 62 | 1015.3 |
| 20260902102731 | 81 | 102 | 0.0 | 1.0 | 0.00 | 0.00 | 0.00 | 62 | 1015.3 |
| 20260902102230 | 81 | 104 | 0.0 | 1.0 | 0.00 | 0.00 | 0.00 | 62 | 1015.3 |
| 20260902101730 | 81 | 99 | 0.0 | 1.0 | 0.00 | 0.00 | 0.00 | 62 | 1015.4 |
| 20260902101230 | 81 | 99 | 0.0 | 1.0 | 0.00 | 0.00 | 0.00 | 62 | 1015.3 |
| 20260902100730 | 82 | 108 | 0.0 | 1.0 | 0.00 | 0.00 | 0.00 | 61 | 1015.4 |
| 20260902100230 | 82 | 98 | 0.0 | 2.0 | 0.00 | 0.00 | 0.00 | 60 | 1015.3 |
| 20260902095229 | 82 | 137 | 1.0 | 2.0 | 0.00 | 0.00 | 0.00 | 60 | 1015.3 |
| 20260902094729 | 81 | 105 | 1.0 | 2.0 | 0.00 | 0.00 | 0.00 | 62 | 1015.4 |
| 20260902094229 | 81 | 106 | 1.0 | 2.0 | 0.00 | 0.00 | 0.00 | 62 | 1015.4 |
| 20260902093729 | 81 | 103 | 0.0 | 1.0 | 0.00 | 0.00 | 0.00 | 63 | 1015.2 |
| 20260902093229 | 81 | 103 | 0.0 | 1.0 | 0.00 | 0.00 | 0.00 | 64 | 1015.3 |
| 20260902092729 | 81 | 103 | 0.0 | 0.0 | 0.00 | 0.00 | 0.00 | 64 | 1015.3 |
| 20260902092229 | 80 | 103 | 0.0 | 0.0 | 0.00 | 0.00 | 0.00 | 64 | 1015.1 |
| 20260902091728 | 80 | 103 | 0.0 | 0.0 | 0.00 | 0.00 | 0.00 | 65 | 1015.1 |
| 20260902091228 | 80 | 103 | 0.0 | 0.0 | 0.00 | 0.00 | 0.00 | 66 | 1015.1 |
| 20260902090228 | 81 | 103 | 0.0 | 0.0 | 0.00 | 0.00 | 0.00 | 62 | 1015.4 |
| 20260902085728 | 81 | 103 | 0.0 | 1.0 | 0.00 | 0.00 | 0.00 | 62 | 1015.2 |
| 20260902085228 | 81 | 113 | 0.0 | 1.0 | 0.00 | 0.00 | 0.00 | 63 | 1015.1 |
| 20260902084728 | 82 | 113 | 0.0 | 1.0 | 0.00 | 0.00 | 0.00 | 62 | 1015.1 |
| 20260902084228 | 82 | 113 | 1.0 | 1.0 | 0.00 | 0.00 | 0.00 | 62 | 1015.1 |
| 20260902083727 | 82 | 110 | 0.0 | 1.0 | 0.00 | 0.00 | 0.00 | 62 | 1015.2 |
| 20260902082727 | 82 | 105 | 0.0 | 1.0 | 0.00 | 0.00 | 0.00 | 61 | 1015.2 |
| 20260902082227 | 82 | 133 | 0.0 | 2.0 | 0.00 | 0.00 | 0.00 | 61 | 1015.3 |
| 20260902081727 | 83 | 147 | 1.0 | 2.0 | 0.00 | 0.00 | 0.00 | 60 | 1015.4 |
| 20260902080727 | 82 | 113 | 1.0 | 2.0 | 0.00 | 0.00 | 0.00 | 61 | 1015.2 |
| 20260902080226 | 82 | 112 | 1.0 | 2.0 | 0.00 | 0.00 | 0.00 | 61 | 1015.2 |
| 20260902075726 | 83 | 101 | 0.0 | 3.0 | 0.00 | 0.00 | 0.00 | 62 | 1015.4 |
| 20260902075226 | 83 | 103 | 0.0 | 3.0 | 0.00 | 0.00 | 0.00 | 61 | 1015.1 |
| 20260902074726 | 83 | 88 | 1.0 | 2.0 | 0.00 | 0.00 | 0.00 | 61 | 1015.1 |
| 20260902073725 | 83 | 106 | 0.0 | 2.0 | 0.00 | 0.00 | 0.00 | 59 | 1015.0 |
| 20260902073225 | 83 | 118 | 0.0 | 2.0 | 0.00 | 0.00 | 0.00 | 58 | 1014.9 |
| 20260902072225 | 84 | 150 | 0.0 | 1.0 | 0.00 | 0.00 | 0.00 | 55 | 1014.8 |
| 20260902071725 | 84 | 103 | 0.0 | 1.0 | 0.00 | 0.00 | 0.00 | 55 | 1014.7 |
| 20260902070725 | 84 | 83 | 0.0 | 1.0 | 0.00 | 0.00 | 0.00 | 55 | 1014.7 |
| 20260902070225 | 84 | 83 | 0.0 | 1.0 | 0.00 | 0.00 | 0.00 | 55 | 1014.7 |
| 20260902065754 | 84 | 82 | 0.0 | 1.0 | 0.00 | 0.00 | 0.00 | 56 | 1014.8 |
| 20260902065254 | 84 | 100 | 0.0 | 1.0 | 0.00 | 0.00 | 0.00 | 57 | 1014.9 |
| 20260902064754 | 83 | 71 | 0.0 | 1.0 | 0.00 | 0.00 | 0.00 | 58 | 1014.6 |
| 20260902063754 | 84 | 98 | 0.0 | 1.0 | 0.00 | 0.00 | 0.00 | 58 | 1014.9 |
| 20260902063254 | 84 | 98 | 0.0 | 1.0 | 0.00 | 0.00 | 0.00 | 59 | 1014.9 |
| 20260902062754 | 84 | 98 | 0.0 | 1.0 | 0.00 | 0.00 | 0.00 | 57 | 1015.0 |
| 20260902062253 | 84 | 98 | 0.0 | 1.0 | 0.00 | 0.00 | 0.00 | 58 | 1015.1 |
| 20260902061753 | 84 | 98 | 0.0 | 1.0 | 0.00 | 0.00 | 0.00 | 57 | 1015.1 |
| 20260902061253 | 84 | 98 | 0.0 | 2.0 | 0.00 | 0.00 | 0.00 | 59 | 1014.9 |
| 20260902060753 | 84 | 101 | 0.0 | 3.0 | 0.00 | 0.00 | 0.00 | 59 | 1015.0 |
| 20260902054252 | 84 | 99 | 0.0 | 1.0 | 0.00 | 0.00 | 0.00 | 59 | 1014.9 |
| 20260902053252 | 84 | 113 | 0.0 | 2.0 | 0.00 | 0.00 | 0.00 | 58 | 1014.8 |
| 20260902052752 | 84 | 118 | 0.0 | 2.0 | 0.00 | 0.00 | 0.00 | 58 | 1014.8 |
| 20260902051752 | 84 | 103 | 0.0 | 3.0 | 0.00 | 0.00 | 0.00 | 59 | 1014.8 |
| 20260902051251 | 84 | 101 | 0.0 | 4.0 | 0.00 | 0.00 | 0.00 | 59 | 1014.8 |
| 20260902050751 | 84 | 102 | 1.0 | 4.0 | 0.00 | 0.00 | 0.00 | 59 | 1014.8 |
| 20260902045751 | 84 | 107 | 2.0 | 4.0 | 0.00 | 0.00 | 0.00 | 60 | 1014.8 |
| 20260902045251 | 84 | 127 | 0.0 | 2.0 | 0.00 | 0.00 | 0.00 | 60 | 1014.7 |
| 20260902044751 | 84 | 91 | 0.0 | 2.0 | 0.00 | 0.00 | 0.00 | 60 | 1014.6 |
| 20260902044250 | 84 | 113 | 0.0 | 2.0 | 0.00 | 0.00 | 0.00 | 60 | 1014.5 |
| 20260902043751 | 84 | 118 | 0.0 | 1.0 | 0.00 | 0.00 | 0.00 | 62 | 1014.6 |
| 20260902042250 | 84 | 248 | 0.0 | 1.0 | 0.00 | 0.00 | 0.00 | 63 | 1014.4 |
| 20260902041750 | 85 | 248 | 0.0 | 1.0 | 0.00 | 0.00 | 0.00 | 61 | 1014.4 |
| 20260902041250 | 84 | 248 | 0.0 | 0.0 | 0.00 | 0.00 | 0.00 | 61 | 1014.4 |
| 20260902040749 | 85 | 248 | 0.0 | 0.0 | 0.00 | 0.00 | 0.00 | 62 | 1014.4 |
| 20260902040249 | 85 | 248 | 0.0 | 1.0 | 0.00 | 0.00 | 0.00 | 61 | 1014.2 |
| 20260902035749 | 85 | 248 | 0.0 | 1.0 | 0.00 | 0.00 | 0.00 | 60 | 1014.1 |
| 20260902035249 | 85 | 248 | 0.0 | 1.0 | 0.00 | 0.00 | 0.00 | 61 | 1014.0 |
| 20260902034749 | 86 | 248 | 0.0 | 1.0 | 0.00 | 0.00 | 0.00 | 59 | 1014.0 |
| 20260902034249 | 86 | 248 | 0.0 | 1.0 | 0.00 | 0.00 | 0.00 | 60 | 1014.0 |
| 20260902033249 | 86 | 248 | 0.0 | 0.0 | 0.00 | 0.00 | 0.00 | 61 | 1013.9 |
| 20260902032748 | 86 | 248 | 0.0 | 0.0 | 0.00 | 0.00 | 0.00 | 61 | 1013.7 |
| 20260902032248 | 86 | 248 | 0.0 | 0.0 | 0.00 | 0.00 | 0.00 | 61 | 1013.6 |
| 20260902031748 | 86 | 248 | 0.0 | 0.0 | 0.00 | 0.00 | 0.00 | 59 | 1013.4 |
| 20260902030748 | 86 | 248 | 0.0 | 0.0 | 0.00 | 0.00 | 0.00 | 59 | 1013.3 |
| 20260902025748 | 86 | 248 | 0.0 | 0.0 | 0.00 | 0.00 | 0.00 | 57 | 1013.2 |
| 20260902024747 | 87 | 248 | 0.0 | 0.0 | 0.00 | 0.00 | 0.00 | 57 | 1012.8 |
| 20260902024247 | 87 | 248 | 0.0 | 0.0 | 0.00 | 0.00 | 0.00 | 55 | 1012.7 |
| 20260902023747 | 88 | 248 | 0.0 | 0.0 | 0.00 | 0.00 | 0.00 | 55 | 1012.9 |
| 20260902023247 | 88 | 248 | 0.0 | 0.0 | 0.00 | 0.00 | 0.00 | 52 | 1012.8 |
| 20260902021246 | 90 | 248 | 0.0 | 0.0 | 0.00 | 0.00 | 0.00 | 44 | 1012.7 |
| 20260902015746 | 92 | 248 | 0.0 | 1.0 | 0.00 | 0.00 | 0.00 | 42 | 1012.8 |
| 20260902015245 | 92 | 213 | 0.0 | 0.0 | 0.00 | 0.00 | 0.00 | 43 | 1012.4 |
| 20260902014746 | 93 | 213 | 0.0 | 0.0 | 0.00 | 0.00 | 0.00 | 41 | 1012.5 |